[TLELIST] Archives

 

[list_settings.list_name] Current TLEs

January 30th 2012 PST

HST 1 20580U 90037B 12030.21585623 .00001983 00000-0 13465-3 0 9333 2 20580 028.4714 332.7259 0003350 023.0071 337.0570 15.02148486993812 ISS (ZARYA) 1 25544U 98067A 12030.34014478 .00009184 00000-0 12319-3 0 9167 2 25544 051.6420 098.5390 0019803 345.2293 136.5832 15.58556623756364 CXO 1 25867U 99040B 12031.41666667 -.00000942 00000-0 00000+0 0 6968 2 25867 071.2622 015.0561 8737806 277.8125 359.4397 00.37799248 8635 ____________________________________________________________________ These 2-Line ...Continue Reading

[list_settings.list_name] Current TLEs

January 29th 2012 PST

HST 1 20580U 90037B 12029.21924635 .00002158 00000-0 14762-3 0 9326 2 20580 028.4705 339.2446 0003305 012.7538 347.3082 15.02146120993663 ISS (ZARYA) 1 25544U 98067A 12029.45261574 .00018555 00000-0 24183-3 0 9106 2 25544 051.6405 102.9912 0020420 341.7052 197.0608 15.58534999756228 CXO 1 25867U 99040B 12028.79166667 -.00000981 00000-0 00000+0 0 6952 2 25867 071.2427 015.2338 8740205 277.8209 002.0526 00.37803194 8622 ____________________________________________________________________ These 2-Line ...Continue Reading

[list_settings.list_name] Current TLEs

January 28th 2012 PST

HST 1 20580U 90037B 12028.22263741 .00002235 00000-0 15339-3 0 9316 2 20580 028.4701 345.7613 0003309 002.4278 357.6444 15.02142781993517 ISS (ZARYA) 1 25544U 98067A 12028.21050258 .00020287 00000-0 25729-3 0 9038 2 25544 051.6431 109.2230 0022175 332.9071 070.3457 15.59145331756035 CXO 1 25867U 99040B 12028.79166667 -.00000981 00000-0 00000+0 0 6952 2 25867 071.2427 015.2338 8740205 277.8209 002.0526 00.37803194 8622 ____________________________________________________________________ These 2-Line ...Continue Reading

[list_settings.list_name] Current TLEs

January 27th 2012 PST

HST 1 20580U 90037B 12026.22940686 .00002061 00000-0 14050-3 0 9309 2 20580 028.4705 358.8017 0003110 335.4313 024.6203 15.02133642993210 ISS (ZARYA) 1 25544U 98067A 12027.44292461 .00018665 00000-0 23767-3 0 8986 2 25544 051.6432 113.0816 0021948 329.8843 082.1833 15.59109391755919 CXO 1 25867U 99040B 12028.79166667 -.00000981 00000-0 00000+0 0 6952 2 25867 071.2427 015.2338 8740205 277.8209 002.0526 00.37803194 8622 ____________________________________________________________________ These 2-Line ...Continue Reading

[list_settings.list_name] Current TLEs

January 26th 2012 PST

HST 1 20580U 90037B 12026.22940686 .00002061 00000-0 14050-3 0 9309 2 20580 028.4705 358.8017 0003110 335.4313 024.6203 15.02133642993210 ISS (ZARYA) 1 25544U 98067A 12026.42524796 .00022402 00000-0 28410-3 0 8920 2 25544 051.6424 118.1882 0022073 326.1252 130.2099 15.59077732755757 CXO 1 25867U 99040B 12026.12500000 -.00000914 00000-0 00000+0 0 6945 2 25867 071.2141 015.4499 8741447 277.7986 359.1146 00.37804518 8619 ____________________________________________________________________ These 2-Line ...Continue Reading

[list_settings.list_name] Current TLEs

January 26th 2012 PST

HST 1 20580U 90037B 12023.37242700 .00001810 00000-0 12186-3 0 9280 2 20580 028.4704 017.4850 0003165 304.8857 055.1572 15.02121386992786 ISS (ZARYA) 1 25544U 98067A 12023.80487902 .00020786 00000-0 26547-3 0 8771 2 25544 051.6424 131.3508 0021786 315.5856 184.2204 15.58951665755348 CXO 1 25867U 99040B 12023.45833333 -.00000907 +00000-0 +00000-0 0 06938 2 25867 071.1896 015.6498 8741448 277.7733 356.1729 00.37801870008608 ____________________________________________________________________ These 2-Line ...Continue Reading

[list_settings.list_name] Current TLEs

January 23rd 2012 PST

HST 1 20580U 90037B 12020.31609646 .00001656 00000-0 11046-3 0 9267 2 20580 028.4703 037.4695 0003283 267.9875 092.0408 15.02110567992321 ISS (ZARYA) 1 25544U 98067A 12021.87334649 +.00013317 +00000-0 +17312-3 0 08654 2 25544 051.6410 141.0445 0021702 307.3905 145.2855 15.58877579755040 CXO 1 25867U 99040B 12 18.22432150 .00000000 00000-0 10000-3 0 6925 2 25867 071.1346 016.0212 8734478 277.7561 003.8155 00.37815561 8589 ____________________________________________________________________ These 2-Line ...Continue Reading

[list_settings.list_name] Current TLEs

January 22nd 2012 PST

PUBLIC "-//W3C//DTD XHTML 1.0 Transitional//EN" "http://www.w3.org/TR/xhtml1/DTD/xhtml1-transitional.dtd"> ____________________________________________________________________ These 2-Line Elements (TLEs) are direct from DoD/ USSTRATCOM/ US Space Command with permission. Updates are provided automatically daily. By receiving this email, you agree not to transfer any data or information received under this agreement, including the analysis of tracking data, to any other entity without the ...Continue Reading

[list_settings.list_name] Current TLEs

January 21st 2012 PST

HST 1 20580U 90037B 12020.31609646 .00001656 00000-0 11046-3 0 9267 2 20580 028.4703 037.4695 0003283 267.9875 092.0408 15.02110567992321 ISS (ZARYA) 1 25544U 98067A 12020.79120419 .00014276 00000-0 18528-3 0 8589 2 25544 051.6415 146.4771 0021657 303.0250 192.7366 15.58851296754873 CXO 1 25867U 99040B 12 18.22432150 .00000000 00000-0 10000-3 0 6925 2 25867 071.1346 016.0212 8734478 277.7561 003.8155 00.37815561 8589 ____________________________________________________________________ These 2-Line ...Continue Reading

[list_settings.list_name] Current TLEs

January 20th 2012 PST

HST 1 20580U 90037B 12020.31609646 .00001656 00000-0 11046-3 0 9267 2 20580 028.4703 037.4695 0003283 267.9875 092.0408 15.02110567992321 ISS (ZARYA) 1 25544U 98067A 12020.46819012 .00014601 00000-0 18940-3 0 8554 2 25544 051.6407 148.0992 0021665 301.7828 180.0711 15.58843233754823 CXO 1 25867U 99040B 12 18.22432150 .00000000 00000-0 10000-3 0 6925 2 25867 071.1346 016.0212 8734478 277.7561 003.8155 00.37815561 8589 ____________________________________________________________________ These 2-Line ...Continue Reading
  • This mailing list is a public mailing list - anyone may join or leave, at any time.
  • This mailing list is announce-only.

International Space Station (ISS) / Hubble Space Telescope (HST) / Chandra X-Ray Observatory Orbital Data via EMAIL

Privacy Policy:

Private list